Weather in Prigorsk

Russia / Republic of Khakassia     53°54′33″N   91°15′40″E
temp.,
°C
wind,
m/s
gust,
m/s
humid.,
%
clouds,
%
prec.,
mm/h
press.,
hPa
HPBL,
m
19 april, mon
mon1901:00+2sse41274100 0.0 1010325
04:00+1s4980100 0.0 1005216
07:00+3ssw61671100 0.0 1001490
10:00+6sw9148083 0.1 1000754
13:00+3wnw12153583 0.1 10091454
16:00+1wnw10123871 0.0 10161866
19:00−1nw9114458 0.0 10181165
22:00−4nnw6850100 0.0 1021842
20 april, tue
tue2001:00−5nnw6847100 0.0 1021887
04:00−6nnw455099 0.0 10221018
07:00−6n2356100 0.0 10231000
10:00−5ne234498 0.1 10231391
13:00−2sse1335100 0.1 10221899
16:00−1ene2235100 0.1 10211884
19:00−2ene124069 0.1 10221268
22:00−3nnw474695 0.1 1024499
21 april, wed
wed2101:00−4n465657 0.1 1024694
04:00−5n235395 0.0 1025580
07:00−5nne225217 0.0 1025549
10:00−3ene12419 0.0 10251216
13:000ene223560 0.0 10231740
16:00+1ne4334100 0.0 10231648
19:000nne5640100 0.0 1024880
22:00−1n3652100 0.0 1025419
22 april, thu
thu2201:00−2nnw476595 0.0 1026416
04:00−3nnw5757100 0.0 1027402
07:00−2nnw6954100 0.0 1028661
10:00+1n894433 0.0 10301209
13:00+2nne8846100 0.0 10311857
16:00+3n7745100 0.0 10321714
19:00+2n674817 0.0 10351289
22:00−1n5106328 0.0 1038364
23 april, fri
fri2301:00−1nnw59679 0.0 1038347
04:00−1n597146 0.0 1039366
07:00−1n57694 0.0 1040453
10:00+2nne56515 0.0 1040968
13:00+5ne5743100 0.0 10381469
16:00+7ne6841100 0.0 10351842
19:00+6ne695390 0.0 10351132
22:00+3nne61163100 0.0 1034469